星链-5183 (STARLINK-5183 )

导读

STARLINK-5183是美国SpaceX公司星链星座的成员卫星,于2022年10月20日发射入轨。作为星链低轨互联网星座的组网卫星,它运行于近地轨道,为全球偏远地区等区域提供高速低延迟宽带互联网服务,属于星链大规模星座部署的一部分,助力SpaceX实现全球覆盖的卫星互联网目标,单颗星链卫星设计寿命超5年,后续将参与全球互联网接入服务。

基本信息
目录编号:
54084
目录名称:
STARLINK-5183
国际标识:
2022-136AK
轨道中心:
EARTH
卫星名称:
星链-5183
卫星全名:
星链-5183 (STARLINK-5183 )
卫星状态:
在轨 (已飞行1423 天)
发射日期:
2022-10-20 UTC
国别 :
美国 (US)
星等 :
--
该卫星已列入 空间交会检测服务 Space Conjunction Data Service (SCDS) ,当前飞行风险评估等级: 无高风险
轨道信息
数据来源 国际轨道数据
星历时间: 2026-09-12T12:00:02+0800
7小时前
查看轨道信息
半长轴: 6883.953km
偏心率: 0.0001701
轨道倾角: 53.159°
近地点辐角 70.493°
升交点赤经 216.184°
平近点角 107.015°
近地点: 504.645km
远地点: 506.987km
周期: 94.736分钟
每日圈数: 15.200082
详细信息
固有亮度:
5
最大亮度:
2.5
卫星平台:
Starlink v1.5
覆盖范围:
全球
运营商:
太空探索技术公司
运营商所在国:
美国
制造商(研发单位):
太空探索技术公司
制造商所在国:
美国
使用方式:
暂无
卫星简介
星链(Starlink)计划是由太空探索技术公司(SpaceX)提出的一个巨型低轨卫星互联网星座项目,计划在2019年至2024年间在太空搭建由约1.2万颗卫星组成的“星链”网络,其中1584颗将部署在地球上空550千米处的近地轨道,并从2020年开始工作。该卫星仍在工作。
2D轨道图
3D轨道图
轨道高度分析图
轨道倾角分析图
轨道综合分析图
查看轨道综合分析图
与全量物体交会距离演化趋势
与全量物体交会风险概率演化趋势